{"data":{"norad_id":68639,"intl_designator":"2026-075D","name":"QIANFAN-112","alt_names":[],"object_type":"PAYLOAD","status":"ACTIVE","operator":null,"country":"PRC","launch_date":"2026-04-07","launch_site_code":"WSC","launch_vehicle":null,"mission":null,"orbit_class":"UNKNOWN","rcs_meters":null,"size_class":null,"mass_kg":null,"dimensions":null,"purposes":[],"wikipedia_slug":null,"has_3d_model":false,"image_url":null,"decayed_at":null,"tle_current":{"epoch":"2026-05-24T18:36:01.781568Z","epoch_age_seconds":104923,"freshness":"FRESH","line1":"1 68639U 26075D   26144.77502062 -.01818796  00000+0 -24205+1 0  9992","line2":"2 68639  88.9873 323.4151 0011473  75.2855 284.9574 13.64813415  6634","mean_motion":13.64813415,"eccentricity":0.0011473,"inclination_deg":88.9873,"raan_deg":323.4151,"arg_perigee_deg":75.2855,"mean_anomaly_deg":284.9574,"bstar":-2.4205,"rev_number":663,"period_min":105.50892775332,"perigee_km":1009.7645728689,"apogee_km":1026.7363235075,"semimajor_km":7396.3874481882,"source":"CELESTRAK","updated_at":"2026-05-25T13:38:07.990377Z"}}}